Weather History for Ardmore Downtown, OK

Change the Weather History Date:

Friday, August 30, 2013

  Actual Average (KADM) Record (KADM)
Temperature  
Mean Temperature 84 °F -  
Max Temperature 100 °F 90 °F 104 °F (2011)
Min Temperature 69 °F 69 °F 60 °F (2004)
Cooling Degree Days 20    
Growing Degree Days 34 (Base 50)    
Moisture  
Dew Point 60 °F    
Average Humidity 47    
Maximum Humidity 83    
Minimum Humidity 21    
Precipitation  
Precipitation 0.00 in - - ()
Sea Level Pressure  
Sea Level Pressure 29.95 in    
Wind  
Wind Speed 1 mph (SSW)    
Max Wind Speed 8 mph    
Max Gust Speed 18 mph    
Visibility 10 miles    
Events      
Averages and records for this station are not official NWS values.
T = Trace of Precipitation, MM = Missing Value Source: NWS Daily Summary

Daily Weather History Graph

Daily Weather History Graph

Search for Another Location

Airport:

Trip Planner

Search our weather history database for the weather conditions in past years. The results will help you decide how hot, cold, wet, or windy it might be!

Date:

Astronomy

Aug. 30, 2013 Rise Set
Actual Time 7:00 AM CDT 7:56 PM CDT
Civil Twilight 6:35 AM CDT 8:22 PM CDT
Nautical Twilight 6:04 AM CDT 8:52 PM CDT
Astronomical Twilight 5:33 AM CDT 9:23 PM CDT
Moon 1:48 AM CDT (8/30) 4:05 PM CDT (8/30)
Length of Visible Light 13h 47m
Length of Day
12h 55m
Waning Crescent, 29% of the Moon is Illuminated
Aug 30
Waning Crescent
Sep 5
New
Sep 12
First Quarter
Sep 19
Full
Sep 26
Last Quarter

Hourly Weather History & Observations

Time (CDT) Temp. Heat Index Dew Point Humidity Pressure Visibility Wind Dir Wind Speed Gust Speed Precip Events Conditions
12:15 AM 75.2 °F - 64.4 °F 69% 29.98 in 10.0 mi Calm Calm - N/A   Clear
12:35 AM 77.0 °F - 62.6 °F 61% 29.98 in 10.0 mi Calm Calm - N/A   Clear
12:55 AM 75.2 °F - 62.6 °F 65% 29.98 in 10.0 mi Calm Calm - N/A   Clear
1:15 AM 73.4 °F - 62.6 °F 69% 29.98 in 10.0 mi Calm Calm - N/A   Clear
1:35 AM 75.2 °F - 62.6 °F 65% 29.98 in 10.0 mi Calm Calm - N/A   Clear
1:55 AM 73.4 °F - 62.6 °F 69% 29.98 in 10.0 mi Calm Calm - N/A   Clear
2:15 AM 71.6 °F - 64.4 °F 78% 29.98 in 10.0 mi Calm Calm - N/A   Clear
2:35 AM 73.4 °F - 62.6 °F 69% 29.97 in 10.0 mi Calm Calm - N/A   Clear
2:55 AM 73.4 °F - 64.4 °F 73% 29.97 in 10.0 mi Calm Calm - N/A   Clear
3:15 AM 71.6 °F - 64.4 °F 78% 29.98 in 10.0 mi Calm Calm - N/A   Clear
3:35 AM 71.6 °F - 64.4 °F 78% 29.98 in 10.0 mi Calm Calm - N/A   Clear
3:55 AM 71.6 °F - 64.4 °F 78% 29.98 in 10.0 mi Calm Calm - N/A   Clear
4:15 AM 73.4 °F - 62.6 °F 69% 29.98 in 10.0 mi Calm Calm - N/A   Clear
4:35 AM 73.4 °F - 62.6 °F 69% 29.98 in 10.0 mi Calm Calm - N/A   Clear
4:55 AM 71.6 °F - 62.6 °F 73% 29.98 in 10.0 mi Calm Calm - N/A   Clear
5:15 AM 69.8 °F - 64.4 °F 83% 29.98 in 10.0 mi Calm Calm - N/A   Clear
5:35 AM 69.8 °F - 64.4 °F 83% 29.99 in 10.0 mi Calm Calm - N/A   Clear
5:55 AM 69.8 °F - 62.6 °F 78% 29.99 in 10.0 mi Calm Calm - N/A   Clear
6:15 AM 71.6 °F - 62.6 °F 73% 29.99 in 10.0 mi Calm Calm - N/A   Clear
6:35 AM 71.6 °F - 62.6 °F 73% 30.00 in 10.0 mi Calm Calm - N/A   Clear
6:55 AM 71.6 °F - 62.6 °F 73% 30.00 in 10.0 mi Calm Calm - N/A   Clear
7:15 AM 71.6 °F - 62.6 °F 73% 30.01 in 10.0 mi Calm Calm - N/A   Clear
7:35 AM 71.6 °F - 62.6 °F 73% 30.02 in 10.0 mi Calm Calm - N/A   Clear
7:55 AM 73.4 °F - 64.4 °F 73% 30.02 in 10.0 mi Calm Calm - N/A   Clear
8:55 AM 80.6 °F 82.3 °F 64.4 °F 58% 30.02 in 10.0 mi South 3.5 mph - N/A   Clear
9:15 AM 82.4 °F 83.9 °F 64.4 °F 54% 30.02 in 10.0 mi SSW 4.6 mph - N/A   Clear
9:35 AM 86.0 °F 86.6 °F 62.6 °F 45% 30.02 in 10.0 mi SSW 5.8 mph - N/A   Clear
9:55 AM 87.8 °F 88.5 °F 62.6 °F 43% 30.02 in 10.0 mi SSW 6.9 mph - N/A   Clear
10:15 AM 89.6 °F 90.1 °F 62.6 °F 40% 30.02 in 10.0 mi WSW 4.6 mph - N/A   Clear
10:35 AM 89.6 °F 90.1 °F 62.6 °F 40% 30.02 in 10.0 mi WSW 4.6 mph - N/A   Clear
10:55 AM 91.4 °F 91.4 °F 60.8 °F 36% 30.02 in 10.0 mi SW 6.9 mph - N/A   Clear
11:15 AM 95.0 °F 94.4 °F 59.0 °F 30% 30.01 in 10.0 mi WSW 5.8 mph - N/A   Clear
11:35 AM 95.0 °F 93.7 °F 57.2 °F 28% 30.00 in 10.0 mi SSW 6.9 mph - N/A   Clear
11:55 AM 95.0 °F 94.4 °F 59.0 °F 30% 30.00 in 10.0 mi WSW 5.8 mph - N/A   Clear
12:15 PM 96.8 °F 96.2 °F 59.0 °F 28% 29.99 in 10.0 mi Calm Calm - N/A   Clear
12:35 PM 96.8 °F 95.8 °F 57.2 °F 27% 29.99 in 10.0 mi SW 4.6 mph - N/A   Clear
12:55 PM 96.8 °F 95.1 °F 55.4 °F 25% 29.98 in 10.0 mi WNW 4.6 mph - N/A   Clear
1:15 PM 98.6 °F 97.2 °F 55.4 °F 24% 29.97 in 10.0 mi SSE 3.5 mph - N/A   Clear
1:35 PM 96.8 °F 95.1 °F 55.4 °F 25% 29.97 in 10.0 mi Calm Calm - N/A   Clear
1:55 PM 98.6 °F 97.2 °F 55.4 °F 24% 29.96 in 10.0 mi South 5.8 mph - N/A   Scattered Clouds
2:15 PM 98.6 °F 97.2 °F 55.4 °F 24% 29.95 in 10.0 mi SW 6.9 mph - N/A   Scattered Clouds
2:35 PM 100.4 °F 98.8 °F 55.4 °F 22% 29.94 in 10.0 mi SW 4.6 mph - N/A   Scattered Clouds
2:55 PM 98.6 °F 97.2 °F 55.4 °F 24% 29.93 in 10.0 mi NW 4.6 mph - N/A   Clear
3:15 PM 100.4 °F 98.8 °F 55.4 °F 22% 29.92 in 10.0 mi SSW 6.9 mph - N/A   Clear
3:35 PM 100.4 °F 98.8 °F 55.4 °F 22% 29.91 in 10.0 mi Calm Calm - N/A   Clear
3:55 PM 100.4 °F 98.4 °F 53.6 °F 21% 29.90 in 10.0 mi Calm Calm - N/A   Clear
4:15 PM 100.4 °F 98.8 °F 55.4 °F 22% 29.90 in 10.0 mi SSE 5.8 mph - N/A   Mostly Cloudy
4:35 PM 100.4 °F 98.4 °F 53.6 °F 21% 29.89 in 10.0 mi WSW 4.6 mph 18.4 mph N/A   Mostly Cloudy
4:55 PM 100.4 °F 98.4 °F 53.6 °F 21% 29.88 in 10.0 mi SSW 5.8 mph - N/A   Scattered Clouds
5:15 PM 100.4 °F 98.4 °F 53.6 °F 21% 29.88 in 10.0 mi South 6.9 mph - N/A   Clear
5:35 PM 100.4 °F 98.4 °F 53.6 °F 21% 29.88 in 10.0 mi South 8.1 mph - N/A   Clear
5:55 PM 98.6 °F 96.4 °F 53.6 °F 22% 29.87 in 10.0 mi South 4.6 mph - N/A   Clear
6:15 PM 98.6 °F 97.2 °F 55.4 °F 24% 29.87 in 10.0 mi South 5.8 mph - N/A   Clear
6:35 PM 98.6 °F 97.2 °F 55.4 °F 24% 29.87 in 10.0 mi South 5.8 mph - N/A   Scattered Clouds
6:55 PM 96.8 °F 95.8 °F 57.2 °F 27% 29.87 in 10.0 mi South 4.6 mph - N/A   Clear
7:15 PM 96.8 °F 96.2 °F 59.0 °F 28% 29.87 in 10.0 mi South 3.5 mph - N/A   Clear
7:35 PM 93.2 °F 93.3 °F 60.8 °F 34% 29.87 in 10.0 mi Calm Calm - N/A   Clear
7:55 PM 91.4 °F 92.1 °F 62.6 °F 38% 29.87 in 10.0 mi Calm Calm - N/A   Scattered Clouds
8:15 PM 89.6 °F 89.5 °F 60.8 °F 38% 29.88 in 10.0 mi Calm Calm - N/A   Scattered Clouds
8:35 PM 89.6 °F 89.5 °F 60.8 °F 38% 29.88 in 10.0 mi Calm Calm - N/A   Scattered Clouds
8:55 PM 87.8 °F 87.6 °F 60.8 °F 40% 29.89 in 10.0 mi Calm Calm - N/A   Scattered Clouds
9:15 PM 86.0 °F 86.1 °F 60.8 °F 43% 29.89 in 10.0 mi Calm Calm - N/A   Scattered Clouds
9:35 PM 86.0 °F 86.6 °F 62.6 °F 45% 29.89 in 10.0 mi Calm Calm - N/A   Clear
9:55 PM 84.2 °F 85.0 °F 62.6 °F 48% 29.89 in 10.0 mi Calm Calm - N/A   Clear
10:15 PM 84.2 °F 84.4 °F 60.8 °F 45% 29.89 in 10.0 mi Calm Calm - N/A   Scattered Clouds
10:35 PM 82.4 °F 83.4 °F 62.6 °F 51% 29.89 in 10.0 mi Calm Calm - N/A   Scattered Clouds
10:55 PM 80.6 °F 81.8 °F 62.6 °F 54% 29.89 in 10.0 mi Calm Calm - N/A   Clear
11:15 PM 80.6 °F 81.8 °F 62.6 °F 54% 29.88 in 10.0 mi Calm Calm - N/A   Clear
11:35 PM 78.8 °F - 62.6 °F 57% 29.88 in 10.0 mi Calm Calm - N/A   Clear
11:55 PM 77.0 °F - 62.6 °F 61% 29.88 in 10.0 mi Calm Calm - N/A   Clear